Tracking 19709 objects as of 17-Jun-2019
HD Live streaming from Space Station
objects crossing your sky now

DELTA 1 DEB

Track DELTA 1 DEB now!
10-day predictions


NORAD ID: 7020
Int'l Code: 1973-086L
Perigee: 1,493.3 km
Apogee: 1,754.2 km
Inclination: 102.1 °
Period: 118.6 minutes
Semi major axis: 7994 km
RCS: 0.2266 m2 (medium)
Launch date: November 6, 1973
Source: United States (US)
Launch site: AIR FORCE WESTERN TEST RANGE (AFWTR)

Note: This is SATELLITE DEBRIS
aabbcc
Your satellite tracking list
Your tracking list is empty




NASA's NSSDC Master Catalog

Two Line Element Set (TLE):
1  7020U 73086L   19167.90076946 +.00000154 +00000-0 +19578-2 0  9990
2  7020 102.1245 310.8685 0163159 234.2326 244.8770 12.14498339021137
Source of the keplerian elements: AFSPC